Location: *
(49.0044°N, 9.5056°E)
Time: 02:51:49
(UTC+00:00)

Cosmos 1825 Rocket - Pass Details

Date: 22 September 2019
Orbit: 603 x 632 km, 82.5° (Epoch: 19 October)

Event Time Altitude Azimuth Distance (km) Brightness Sun altitude
Rises 20:07:02 0° 351° (N) 2,876 7.6 -26.5°
Reaches altitude 10° 20:09:16 10° 352° (N) 1,965 6.6 -26.8°
Enters shadow 20:12:11 41° 359° (N) 879 4.5 -27.2°
